Location: Bacharowice
(49.9333°N, 19.5833°E)
Time: 13:17:02
(UTC+00:00)

X-37B - Pass Details

Date: 11 May 2021
Orbit: 386 x 389 km, 45.0° (Epoch: 10 June)

Event Time Altitude Azimuth Distance (km) Brightness Sun altitude
Rises 19:59:53 0° 266° (W) 2,274 5.0 -13.5°
Reaches altitude 10° 20:02:43 10° 238° (WSW) 1,415 3.5 -13.8°
Maximum altitude 20:04:22 13° 207° (SSW) 1,226 2.9 -14.0°
Enters shadow 20:04:40 13° 201° (SSW) 1,232 2.8 -14.0°
